Regional Weather Roundup
Issued by NWS Charleston, SC

Current Version | Previous Version | Text Only | Print | Product List | Glossary Off
Versions: 1 2 3 4 5 6 7 8 9 10 11 12 13 14 15 16 17 18 19 20 21 22 23 24 25 26 27 28 29 30 31 32 33 34 35 36 37 38 39 40 41 42 43 44 45 46 47 48 49 50

000
ASUS42 KCHS 060927
RWRCHS

REGIONAL WEATHER ROUNDUP
NATIONAL WEATHER SERVICE CHARLESTON SC
500 AM EDT WED MAY 06 2015

NOTE: "FAIR" INDICATES FEW OR NO CLOUDS BELOW 12,000 FEET WITH NO
SIGNIFICANT WEATHER AND/OR OBSTRUCTIONS TO VISIBILITY.

NOT ALL STATIONS ARE QUALITY CONTROLLED BY THE NATIONAL
WEATHER SERVICE. USE DATA WITH CAUTION...ESPECIALLY
DEWPOINT OBSERVATIONS.

SCZ027-030-031-034>040-042>050-061000-
...SOUTHEAST SOUTH CAROLINA...

CITY           SKY/WX    TMP DP  RH WIND       PRES   REMARKS
N CHARLESTON   MOCLDY    61  59  93 NE6       30.18F
WATERFRONT PRK   N/A     64 N/A N/A N8          N/A
MOUNT PLEASANT FAIR      63  61  94 MISG      30.17F FOG
PINOPOLIS      NOT AVBL
MONCKS CORNER  FAIR      61  59  94 NE3       30.18F
SUMMERVILLE    FAIR      55  55 100 CALM      30.19F
BEAUFORT MCAS  CLEAR     62  60  93 N7        30.16F
BEAUFORT ARPT  FAIR      63  63 100 CALM      30.16F
HILTON HEAD IS CLOUDY    66  64  94 N6        30.16F
WALTERBORO     MOSUNNY   61  59  94 NE3       30.19F
ALLENDALE      FAIR      59  59 100 CALM      30.18F

...SOUTHERN MIDLANDS AND PEE DEE...

CITY           SKY/WX    TMP DP  RH WIND       PRES   REMARKS
GEORGETOWN     NOT AVBL
KINGSTREE      NOT AVBL
ORANGEBURG     MOCLDY    56  53  90 CALM      30.21S
BARNWELL       FAIR      57  57 100 N5        30.21S
AIKEN          FAIR      52  50  93 CALM      30.25S
MANNING        FAIR      54  52  94 N3        30.21S
COLUMBIA       PTCLDY    56  51  84 CALM      30.21F
SUMTER         PTCLDY    56  53  91 NE5       30.20F
FLORENCE       MOCLDY    58  54  86 NE3       30.22F
MYRTLE BEACH   MOCLDY    61  55  82 N5        30.22F
N MYRTLE BEACH MOCLDY    57  55  93 N5        30.20F

$$

GAZ063-065-086>088-099>101-113>116-118-119-134>141-150-061000-
...SOUTHEAST GEORGIA...

CITY           SKY/WX    TMP DP  RH WIND       PRES   REMARKS
SAVANNAH ARPT  PTCLDY    62  60  93 N7        30.16F
HUNTER AAF     PTCLDY    65  64  97 CALM      30.13F
FORT STEWART   PTCLDY    62  59  92 N5        30.14S
STATESBORO       N/A     60  60 100 CALM      30.18S
SYLVANIA       CLOUDY    60  60  99 CALM      30.19S
CLAXTON        FAIR      57  57 100 NE3       30.17S

...CSRA...CENTRAL AND FAR SOUTHEAST GEORGIA...

CITY           SKY/WX    TMP DP  RH WIND       PRES   REMARKS
THOMSON        CLEAR     52  52 100 CALM      30.25S
AUGUSTA-BUSH   PTCLDY    52  51  97 CALM      30.20F
AUGUSTA-DANIEL PTCLDY    62  55  77 NE3       30.21S
SWAINSBORO     FAIR      61  61 100 NE3       30.19S
VIDALIA        PTCLDY    61  59  94 N3        30.17S
EASTMAN        FAIR      56  56 100 CALM      30.20S FOG
HAZLEHURST     PTSUNNY   62  61  97 CALM      30.15S
ALMA           PTCLDY    61  59  93 NE3       30.15S
WAYCROSS       CLEAR     63  63  99 CALM      30.14S
JESUP          FAIR      66  64  94 NE6       30.15S
BAXLEY         FAIR      64  61  88 E6        30.14F
BRUNSWICK      PTCLDY    66  63  88 N3        30.13F
SAINT SIMONS   MOCLDY    69  65  86 N8        30.12F

$$

SCZ027-028-034-036>038-045-046-048>050-GAZ119-141-061000-
...LAKE AND SUPPLEMENTAL COASTAL OBSERVATIONS...

STATION/POSITION TIME  TEMP    WIND        PRES    WAVE   SWELL
                       AIR SEA DIR/SP/G            HT/PER HT/PER/DIR
                 (UTC) (F)     (DEG/KT/KT) (MB)    (FT/S) (FT/S/D)
UPR LAKE MARION  NOT AVBL
WINYAH BAY       0845   67      20/  6     1021.0F
LAKE MURRAY      0900   62      CALM  /  1 1022.7S
ACE BASIN NERRS  NOT AVBL
FORT PULASKI     0900   67 70   10/  6/  8 1021.4F
SAPELO ISLAND    0900   66      30/  6     1020.0F

$$

ANZ835-935-AMZ111-154-330-350-352-354-370-450-454-472-061000-
...C-MAN AND BUOY OBSERVATIONS...

STATION/POSITION TIME  TEMP    WIND        PRES    WAVE   SWELL
                       AIR SEA DIR/SP/G            HT/PER HT/PER/DIR
                 (UTC) (F)     (DEG/KT/KT) (MB)    (FT/S) (FT/S/D)
BUOY 41004       0850   73 73   70/ 16/ 17 1020.3F   5/ 8   3/ 8
BUOY 41008       0850   70 70   40/ 12/ 14 1020.1F   5/ 8   5/110/ 8
FOLLY BEACH CMAN 0900   67      10/ 11/ 13 1021.3F
CAPERS NEARSHORE 0808   69      40/ 12/ 16 1022.1F
FRIPP NEARSHORE  0800   70      40/ 14/ 16 1021.0F


STATION/POSITION TIME  TEMP    WIND        PRES    WAVE   SWELL
                       AIR SEA DIR/SP/G            HT/PER HT/PER/DIR
                 (UTC) (F)     (DEG/KT/KT) (MB)    (FT/S) (FT/S/D)
5E ST. MARYS GA  0821      72                N/A     5/ 7
FRYING PAN BUOY  0850   73 71   90/ 10/ 12 1023.1F   5/ 7   5/130/ 7
BUOY 41025       0850   70 75  150/  6/  8 1024.4F   3/11   2/ 20/11
CAPE LOOKOUT NC  0900   68      50/  5/  5 1023.6F
BUOY 41002       0850   70 71   90/ 17/ 21 1021.3F   7/ 8   2/ 70/11
BUOY 41010       0820   73 78   60/ 17/ 21 1015.8
ST AUGUSTINE FL  0900   71 72  350/  9/ 10 1018.9F


$$



USA.gov is the U.S. government's official web portal to all federal, state and local government web resources and services.